User: anonymous   Login
Location: ???? ?????????
(31.1304°N, 31.7111°E)
Time: 00:41:37
(UTC+00:00)
Language:

Radarsat Rocket - Orbit

View from above orbital plane
View from above orbital plane
View from above satellite
View from above satellite

Ground track
Ground track

The orbit data is extracted from the following two-line orbital elements,

1 23711U 95059B   21015.55599212 -.00000041  00000-0  13341-4 0  9991
2 23711 100.6271  24.9775 0367501 245.8393 226.5129 13.12723319207281
Epoch (UTC): 15 January 2021 13:20:37
Eccentricity: 0.0367501
inclination: 100.6271°
perigee height: 933 km
apogee height: 1491 km
right ascension of ascending node: 24.9775°
argument of perigee: 245.8393°
revolutions per day: 13.12723319
mean anomaly at epoch: 226.5129°
orbit number at epoch: 20728

The dashed part of the orbit path shows where the satellite is in the earth's shadow,  

DLR